When you browse on this site, cookies collect data to enhance your experience and personalize the content and advertising you see.
Visit our Privacy Policy to learn more. By continuing to use the site, you agree to this use of cookies and data.
  • In United Kingdom
  • List of Countries
  • For 7 days
  • Water Temperature
  • Weather Map
  • Weather Widgets
  • user-avatar
    Login

    Hourly Weather Duesseldorf

    Today, 11 December, Wednesday

    Time Temperature Precipitation Wind Pressure Humidity
    00:00 +4°C° 0.3 mm 6 mps 757 mmHg 57%
    01:00 +4°C° 0 mm 6 mps 756 mmHg 60%
    02:00 +5°C° 0 mm 5 mps 756 mmHg 62%
    03:00 +5°C° 0 mm 5 mps 755 mmHg 65%
    04:00 +5°C° 0.6 mm 4 mps 755 mmHg 73%
    05:00 +4°C° 0.6 mm 4 mps 755 mmHg 80%
    06:00 +4°C° 0.6 mm 4 mps 754 mmHg 88%
    07:00 +4°C° 0.8 mm 3 mps 754 mmHg 88%
    08:00 +4°C° 0.8 mm 3 mps 754 mmHg 89%
    09:00 +4°C° 0.8 mm 3 mps 753 mmHg 89%
    10:00 +4°C° 0.5 mm 3 mps 753 mmHg 89%
    11:00 +4°C° 0.5 mm 3 mps 752 mmHg 89%
    12:00 +4°C° 0.5 mm 3 mps 752 mmHg 90%
    13:00 +5°C° 0.6 mm 2 mps 751 mmHg 91%
    14:00 +5°C° 0.6 mm 2 mps 751 mmHg 92%
    15:00 +5°C° 0.6 mm 2 mps 750 mmHg 93%
    16:00 +5°C° 0.1 mm 2 mps 750 mmHg 93%
    17:00 +5°C° 0.1 mm 2 mps 750 mmHg 93%
    18:00 +5°C° 0.1 mm 2 mps 750 mmHg 93%
    19:00 +5°C° 0 mm 2 mps 750 mmHg 92%
    20:00 +4°C° 0 mm 2 mps 750 mmHg 92%
    21:00 +4°C° 0 mm 2 mps 750 mmHg 91%
    22:00 +4°C° 0 mm 2 mps 750 mmHg 90%
    23:00 +4°C° 0 mm 2 mps 750 mmHg 88%

    Tomorrow, 12 December, Thursday

    Time Temperature Precipitation Wind Pressure Humidity
    00:00 +3°C° 0 mm 3 mps 749 mmHg 87%
    01:00 +3°C° 0 mm 3 mps 749 mmHg 87%
    02:00 +3°C° 0 mm 3 mps 749 mmHg 88%
    03:00 +3°C° 0 mm 3 mps 748 mmHg 88%
    04:00 +3°C° 0 mm 3 mps 748 mmHg 87%
    05:00 +3°C° 0 mm 4 mps 748 mmHg 85%
    06:00 +3°C° 0 mm 4 mps 748 mmHg 84%
    07:00 +3°C° 0 mm 4 mps 748 mmHg 84%
    08:00 +3°C° 0 mm 4 mps 748 mmHg 83%
    09:00 +1°C° 0 mm 4 mps 748 mmHg 83%
    10:00 +3°C° 0 mm 4 mps 748 mmHg 79%
    11:00 +4°C° 0 mm 4 mps 748 mmHg 74%
    12:00 +4°C° 0 mm 4 mps 748 mmHg 70%
    13:00 +4°C° 0 mm 4 mps 747 mmHg 71%
    14:00 +4°C° 0 mm 4 mps 746 mmHg 72%
    15:00 +3°C° 0 mm 4 mps 746 mmHg 73%
    16:00 +3°C° 0 mm 4 mps 745 mmHg 74%
    17:00 +1°C° 0 mm 5 mps 744 mmHg 74%
    18:00 +1°C° 0 mm 6 mps 743 mmHg 75%
    19:00 +1°C° 0 mm 6 mps 741 mmHg 72%
    20:00 0°C° 0 mm 7 mps 740 mmHg 70%
    21:00 0°C° 0 mm 7 mps 738 mmHg 68%
    22:00 0°C° 0.2 mm 8 mps 736 mmHg 71%
    23:00 +1°C° 0.2 mm 8 mps 734 mmHg 73%

    Day after tomorrow, 13 December, Friday

    Time Temperature Precipitation Wind Pressure Humidity
    00:00 +1°C° 0.2 mm 9 mps 733 mmHg 75%
    01:00 +1°C° 0.7 mm 8 mps 731 mmHg 79%
    02:00 +3°C° 0.7 mm 7 mps 730 mmHg 83%
    03:00 +3°C° 0.7 mm 7 mps 729 mmHg 88%
    04:00 +3°C° 1.1 mm 6 mps 728 mmHg 88%
    05:00 +3°C° 1.1 mm 5 mps 728 mmHg 88%
    06:00 +4°C° 1.1 mm 4 mps 728 mmHg 87%
    07:00 +4°C° 0.2 mm 4 mps 728 mmHg 85%
    08:00 +3°C° 0.2 mm 5 mps 729 mmHg 83%
    09:00 +3°C° 0.2 mm 5 mps 729 mmHg 81%
    10:00 +3°C° 0.1 mm 5 mps 729 mmHg 81%
    11:00 +3°C° 0.1 mm 5 mps 730 mmHg 82%
    12:00 +3°C° 0.1 mm 6 mps 730 mmHg 82%
    13:00 +3°C° 0.5 mm 5 mps 730 mmHg 84%
    14:00 +3°C° 0.5 mm 5 mps 731 mmHg 86%
    15:00 +3°C° 0.5 mm 5 mps 731 mmHg 88%
    16:00 +3°C° 0.9 mm 5 mps 731 mmHg 89%
    17:00 +5°C° 0.9 mm 5 mps 731 mmHg 90%
    18:00 +5°C° 0.9 mm 5 mps 732 mmHg 91%
    19:00 +4°C° 0.4 mm 6 mps 732 mmHg 89%
    20:00 +4°C° 0.4 mm 7 mps 732 mmHg 86%
    21:00 +5°C° 0.4 mm 7 mps 732 mmHg 84%
    22:00 +5°C° 0.1 mm 7 mps 733 mmHg 82%
    23:00 +5°C° 0.1 mm 7 mps 733 mmHg 80%

    14 December, Saturday

    Time Temperature Precipitation Wind Pressure Humidity
    00:00 +5°C° 0.1 mm 7 mps 734 mmHg 78%
    01:00 +5°C° 0.3 mm 7 mps 734 mmHg 81%
    02:00 +4°C° 0.3 mm 6 mps 733 mmHg 85%
    03:00 +5°C° 0.3 mm 5 mps 733 mmHg 88%
    04:00 +5°C° 0.7 mm 7 mps 733 mmHg 84%
    05:00 +6°C° 0.7 mm 8 mps 732 mmHg 79%
    06:00 +6°C° 0.7 mm 9 mps 732 mmHg 75%
    07:00 +6°C° 0.2 mm 10 mps 733 mmHg 74%
    08:00 +5°C° 0.2 mm 10 mps 734 mmHg 74%
    09:00 +3°C° 0.2 mm 11 mps 735 mmHg 73%
    10:00 +4°C° 0.1 mm 11 mps 737 mmHg 66%
    11:00 +5°C° 0.1 mm 10 mps 738 mmHg 59%
    12:00 +5°C° 0.1 mm 10 mps 739 mmHg 51%
    13:00 +5°C° 0 mm 9 mps 739 mmHg 55%
    14:00 +4°C° 0 mm 8 mps 740 mmHg 58%
    15:00 +4°C° 0 mm 8 mps 740 mmHg 62%
    16:00 +4°C° 0.3 mm 8 mps 741 mmHg 64%
    17:00 +4°C° 0.3 mm 8 mps 742 mmHg 66%
    18:00 +2°C° 0.3 mm 9 mps 743 mmHg 67%
    19:00 +2°C° 0 mm 8 mps 744 mmHg 64%
    20:00 +2°C° 0 mm 8 mps 745 mmHg 60%
    21:00 +1°C° 0 mm 8 mps 746 mmHg 56%
    22:00 +2°C° 0 mm 7 mps 746 mmHg 59%
    23:00 +2°C° 0 mm 6 mps 747 mmHg 62%

    15 December, Sunday

    Time Temperature Precipitation Wind Pressure Humidity
    00:00 +2°C° 0 mm 6 mps 748 mmHg 65%
    01:00 +2°C° 0 mm 5 mps 748 mmHg 69%
    02:00 +1°C° 0 mm 4 mps 748 mmHg 73%
    03:00 +1°C° 0 mm 4 mps 748 mmHg 76%
    04:00 +3°C° 0 mm 4 mps 747 mmHg 77%
    05:00 +2°C° 0 mm 5 mps 746 mmHg 78%
    06:00 +2°C° 0 mm 5 mps 745 mmHg 79%
    07:00 +3°C° 0.1 mm 5 mps 745 mmHg 79%
    08:00 +4°C° 0.1 mm 6 mps 744 mmHg 80%
    09:00 +7°C° 0.1 mm 6 mps 744 mmHg 81%
    10:00 +6°C° 0.5 mm 8 mps 744 mmHg 72%
    11:00 +6°C° 0.5 mm 9 mps 745 mmHg 64%
    12:00 +7°C° 0.5 mm 10 mps 745 mmHg 56%
    13:00 +6°C° 0 mm 9 mps 747 mmHg 57%
    14:00 +5°C° 0 mm 8 mps 748 mmHg 58%
    15:00 +4°C° 0 mm 6 mps 750 mmHg 59%
    16:00 +5°C° 0 mm 5 mps 751 mmHg 63%
    17:00 +5°C° 0 mm 5 mps 751 mmHg 67%
    18:00 +4°C° 0 mm 4 mps 752 mmHg 71%
    19:00 +4°C° 0 mm 4 mps 752 mmHg 71%
    20:00 +4°C° 0 mm 4 mps 753 mmHg 71%
    21:00 +4°C° 0 mm 4 mps 753 mmHg 71%
    22:00 +4°C° 0 mm 4 mps 753 mmHg 72%
    23:00 +4°C° 0 mm 4 mps 753 mmHg 72%

    16 December, Monday

    Time Temperature Precipitation Wind Pressure Humidity
    00:00 +4°C° 0 mm 4 mps 753 mmHg 73%
    01:00 +4°C° 0 mm 4 mps 753 mmHg 76%
    02:00 +4°C° 0 mm 3 mps 753 mmHg 79%
    03:00 +4°C° 0 mm 3 mps 753 mmHg 82%
    04:00 +4°C° 0 mm 3 mps 753 mmHg 84%
    05:00 +4°C° 0 mm 3 mps 753 mmHg 85%
    06:00 +4°C° 0 mm 3 mps 753 mmHg 87%
    07:00 +4°C° 0.2 mm 3 mps 753 mmHg 88%
    08:00 +5°C° 0.2 mm 3 mps 753 mmHg 90%
    09:00 +5°C° 0.2 mm 3 mps 753 mmHg 91%
    10:00 +5°C° 0.6 mm 3 mps 752 mmHg 92%
    11:00 +5°C° 0.6 mm 3 mps 752 mmHg 93%
    12:00 +7°C° 0.6 mm 3 mps 751 mmHg 94%
    13:00 +6°C° 0.1 mm 4 mps 751 mmHg 90%
    14:00 +7°C° 0.1 mm 4 mps 750 mmHg 86%
    15:00 +8°C° 0.1 mm 4 mps 750 mmHg 83%
    16:00 +8°C° 0 mm 4 mps 749 mmHg 83%
    17:00 +8°C° 0 mm 5 mps 749 mmHg 82%
    18:00 +8°C° 0 mm 5 mps 749 mmHg 82%
    19:00 +8°C° 0 mm 5 mps 749 mmHg 82%
    20:00 +9°C° 0 mm 5 mps 748 mmHg 81%
    21:00 +9°C° 0 mm 5 mps 748 mmHg 81%
    22:00 +9°C° 0 mm 5 mps 748 mmHg 80%
    23:00 +9°C° 0 mm 5 mps 748 mmHg 78%
    Show more